Regional Weather Roundup
Issued by NWS Cleveland, OH

Home | Current Version | Previous Version | Graphics & Text | Print | Product List | Glossary On
Versions: 1 2 3 4 5 6 7 8 9 10 11 12 13 14 15 16 17 18 19 20 21 22 23 24 25 26 27 28 29 30 31 32 33 34 35 36 37 38 39 40 41 42 43 44 45 46 47 48 49 50
471
ASUS41 KCLE 242312
RWRCLE
OHIO REGIONAL WEATHER ROUNDUP
NATIONAL WEATHER SERVICE WILMINGTON, OH
700 PM EDT TUE MAY 24 2016

NOTE: "FAIR" INDICATES FEW OR NO CLOUDS BELOW 12,000 FEET WITH NO
SIGNIFICANT WEATHER AND/OR OBSTRUCTIONS TO VISIBILITY.

OHZ001>008-015>018-024>027-034-035-043-044-250000-
   NORTHWEST OHIO

CITY           SKY/WX    TMP DP  RH WIND       PRES   REMARKS
DEFIANCE       FAIR      84  43  23 SW7       30.00S
FINDLAY        FAIR      82  38  20 SW9       30.01R
TOLEDO EXPRESS FAIR      83  43  24 W13       30.00R
TOLEDO EXEC    FAIR      83  43  24 SW10      30.00S
LIMA           FAIR      80  42  25 SW7       30.03S
$$

OHZ009>014-019>023-028>033-038-089-250000-
   NORTHEAST OHIO

CITY           SKY/WX    TMP DP  RH WIND       PRES   REMARKS
CLE-HOPKINS    FAIR      80  41  24 NE7       30.03F
CLE-LAKEFRONT  FAIR      77  45  32 CALM      30.01F
CUY CO. ARPT   SUNNY     81  37  21 NW5       30.04F
LORAIN-ELYRIA  FAIR      80  40  23 CALM      30.02S
ASHTABULA      FAIR      77  32  19 NW6       30.04F
AKRON-CANTON   FAIR      78  45  30 W6        30.04S
WOOSTER        FAIR      78  45  30 W12       30.04F
MANSFIELD      FAIR      78  46  32 SW8       30.05S
YOUNGSTOWN     PTSUNNY   78  46  32 NW7       30.03S
$$

OHZ042-051>053-060>062-070>072-077>081-250000-
  SOUTHWEST OHIO

CITY           SKY/WX    TMP DP  RH WIND       PRES   REMARKS
CINC-COVINGTON FAIR      79  46  31 SW6       30.07S
CINC-LUNKEN    FAIR      78  51  38 S7        30.06R
HAMILTON       FAIR      81  47  30 SW6       30.06S
DAYTON         FAIR      78  46  32 SW8       30.06S
WRIGHT-PAT AFB FAIR      79  45  29 SW7       30.05S
DAYTON GENERAL FAIR      79  46  31 SW5       30.06S
WILMINGTON     FAIR      78  52  40 S8        30.07R
$$

OHZ036-037-039>041-045>050-054>059-063>069-073>076-082>088-250000-
  CENTRAL AND SOUTHEAST OHIO

CITY           SKY/WX    TMP DP  RH WIND       PRES   REMARKS
COLUMBUS       FAIR      79  46  31 W9        30.04S
OSU AIRPORT    FAIR      80  48  32 SW8       30.05R
BOLTON FIELD   SUNNY     79  52  38 S9        30.06R
RICKENBACK AFB FAIR      78  51  37 SW6       30.05R
NEWARK         FAIR      80  48  32 SW8       30.04S
MARION         FAIR      79  43  27 SW9       30.04S
LANCASTER      FAIR      77  50  38 SW8       30.06S
ZANESVILLE     FAIR      80  51  36 W5        30.06S
NEW PHILLY     FAIR      81  48  31 W5        30.05S
$$




USA.gov is the U.S. government's official web portal to all federal, state and local government web resources and services.